When you browse on this site, cookies collect data to enhance your experience and personalize the content and advertising you see.
Visit our Privacy Policy to learn more. By continuing to use the site, you agree to this use of cookies and data.
  • En España
  • Lista de países
  • Para 7 días
  • Temperatura del agua
  • Mapa Satelital
  • El tiempo en el mapa
  • Informadores
  • user-avatar
    Iniciar sesión

    Tiempo cada hora Razgrad

    Hoy, 21 Enero, Lunes

    Tiempo Temperatura Precipitaciones Viento Presión Humedad
    00:00 +2°C° 0 mm 3 mps 740 mmHg 96%
    01:00 +2°C° 0 mm 3 mps 740 mmHg 96%
    02:00 0°C° 0 mm 4 mps 741 mmHg 95%
    03:00 0°C° 0 mm 4 mps 741 mmHg 94%
    04:00 0°C° 0 mm 4 mps 741 mmHg 94%
    05:00 0°C° 0 mm 4 mps 741 mmHg 93%
    06:00 0°C° 0 mm 3 mps 741 mmHg 94%
    07:00 0°C° 0 mm 3 mps 741 mmHg 95%
    08:00 -1°C° 0 mm 3 mps 742 mmHg 96%
    09:00 0°C° 0 mm 3 mps 742 mmHg 91%
    10:00 +1°C° 0 mm 3 mps 743 mmHg 86%
    11:00 +2°C° 0 mm 3 mps 743 mmHg 81%
    12:00 +3°C° 0 mm 3 mps 743 mmHg 77%
    13:00 +4°C° 0 mm 2 mps 743 mmHg 74%
    14:00 +4°C° 0 mm 2 mps 743 mmHg 71%
    15:00 +4°C° 0 mm 2 mps 743 mmHg 74%
    16:00 +3°C° 0 mm 2 mps 744 mmHg 77%
    17:00 +4°C° 0 mm 1 mps 744 mmHg 80%
    18:00 +2°C° 0 mm 2 mps 744 mmHg 82%
    19:00 +1°C° 0 mm 2 mps 744 mmHg 84%
    20:00 -1°C° 0 mm 2 mps 745 mmHg 86%
    21:00 -1°C° 0 mm 2 mps 745 mmHg 86%
    22:00 -1°C° 0 mm 2 mps 745 mmHg 86%
    23:00 -1°C° 0 mm 2 mps 745 mmHg 86%

    Mañana, 22 Enero, Martes

    Tiempo Temperatura Precipitaciones Viento Presión Humedad
    00:00 -1°C° 0 mm 2 mps 745 mmHg 85%
    01:00 -1°C° 0 mm 2 mps 745 mmHg 84%
    02:00 -1°C° 0 mm 3 mps 745 mmHg 84%
    03:00 -1°C° 0 mm 3 mps 745 mmHg 84%
    04:00 -1°C° 0 mm 3 mps 744 mmHg 85%
    05:00 0°C° 0 mm 3 mps 744 mmHg 85%
    06:00 0°C° 0 mm 3 mps 744 mmHg 87%
    07:00 0°C° 0 mm 3 mps 744 mmHg 88%
    08:00 -1°C° 0 mm 3 mps 744 mmHg 90%
    09:00 +1°C° 0 mm 3 mps 743 mmHg 87%
    10:00 +1°C° 0 mm 4 mps 743 mmHg 83%
    11:00 +2°C° 0 mm 5 mps 743 mmHg 79%
    12:00 +2°C° 0 mm 5 mps 742 mmHg 79%
    13:00 +3°C° 0 mm 5 mps 742 mmHg 78%
    14:00 +3°C° 0 mm 5 mps 741 mmHg 78%
    15:00 +3°C° 0 mm 5 mps 740 mmHg 81%
    16:00 +4°C° 0 mm 4 mps 740 mmHg 84%
    17:00 +3°C° 0 mm 4 mps 739 mmHg 88%
    18:00 +3°C° 0 mm 4 mps 739 mmHg 89%
    19:00 +3°C° 0 mm 4 mps 739 mmHg 91%
    20:00 +3°C° 0 mm 4 mps 738 mmHg 92%
    21:00 +3°C° 0 mm 4 mps 738 mmHg 92%
    22:00 +3°C° 0 mm 4 mps 737 mmHg 92%
    23:00 +2°C° 0 mm 5 mps 737 mmHg 91%

    Pasado mañana, 23 Enero, Miércoles

    Tiempo Temperatura Precipitaciones Viento Presión Humedad
    00:00 +3°C° 0.1 mm 5 mps 736 mmHg 91%
    01:00 +3°C° 0.1 mm 5 mps 735 mmHg 91%
    02:00 +3°C° 0.1 mm 5 mps 735 mmHg 91%
    03:00 +3°C° 0.3 mm 5 mps 734 mmHg 90%
    04:00 +5°C° 0.3 mm 5 mps 733 mmHg 90%
    05:00 +5°C° 0.3 mm 5 mps 733 mmHg 90%
    06:00 +5°C° 0.1 mm 4 mps 732 mmHg 90%
    07:00 +5°C° 0.1 mm 4 mps 732 mmHg 90%
    08:00 +5°C° 0.1 mm 3 mps 732 mmHg 90%
    09:00 +7°C° 0 mm 3 mps 732 mmHg 86%
    10:00 +8°C° 0 mm 2 mps 732 mmHg 83%
    11:00 +10°C° 0 mm 2 mps 733 mmHg 80%
    12:00 +10°C° 0 mm 2 mps 732 mmHg 76%
    13:00 +12°C° 0 mm 2 mps 732 mmHg 72%
    14:00 +12°C° 0 mm 2 mps 732 mmHg 69%
    15:00 +12°C° 0 mm 1 mps 732 mmHg 72%
    16:00 +11°C° 0 mm 1 mps 732 mmHg 75%
    17:00 +10°C° 0 mm 1 mps 732 mmHg 79%
    18:00 +9°C° 0 mm 1 mps 732 mmHg 80%
    19:00 +8°C° 0 mm 2 mps 732 mmHg 82%
    20:00 +7°C° 0 mm 2 mps 732 mmHg 83%
    21:00 +7°C° 0 mm 2 mps 732 mmHg 85%
    22:00 +7°C° 0 mm 2 mps 732 mmHg 87%
    23:00 +7°C° 0 mm 2 mps 732 mmHg 89%

    24 Enero, Jueves

    Tiempo Temperatura Precipitaciones Viento Presión Humedad
    00:00 +7°C° 0.1 mm 2 mps 732 mmHg 90%
    01:00 +7°C° 0.1 mm 2 mps 732 mmHg 91%
    02:00 +8°C° 0.1 mm 1 mps 732 mmHg 92%
    03:00 +7°C° 0.2 mm 2 mps 732 mmHg 92%
    04:00 +7°C° 0.2 mm 2 mps 731 mmHg 93%
    05:00 +7°C° 0.2 mm 2 mps 731 mmHg 94%
    06:00 +7°C° 0 mm 2 mps 731 mmHg 94%
    07:00 +7°C° 0 mm 3 mps 731 mmHg 93%
    08:00 +7°C° 0 mm 3 mps 731 mmHg 93%
    09:00 +7°C° 0.2 mm 4 mps 731 mmHg 88%
    10:00 +8°C° 0.2 mm 4 mps 731 mmHg 84%
    11:00 +8°C° 0.2 mm 5 mps 732 mmHg 80%
    12:00 +9°C° 0 mm 5 mps 731 mmHg 75%
    13:00 +10°C° 0 mm 6 mps 731 mmHg 70%
    14:00 +11°C° 0 mm 7 mps 731 mmHg 66%
    15:00 +10°C° 0.1 mm 7 mps 731 mmHg 71%
    16:00 +8°C° 0.1 mm 7 mps 731 mmHg 76%
    17:00 +6°C° 0.1 mm 7 mps 731 mmHg 81%
    18:00 +6°C° 0.1 mm 7 mps 732 mmHg 83%
    19:00 +5°C° 0.1 mm 8 mps 732 mmHg 84%
    20:00 +4°C° 0.1 mm 8 mps 732 mmHg 86%
    21:00 +4°C° 0.1 mm 8 mps 733 mmHg 86%
    22:00 +2°C° 0.1 mm 8 mps 733 mmHg 86%
    23:00 +2°C° 0.1 mm 8 mps 733 mmHg 87%

    25 Enero, Viernes

    Tiempo Temperatura Precipitaciones Viento Presión Humedad
    00:00 +2°C° 0.1 mm 8 mps 733 mmHg 87%
    01:00 +2°C° 0.1 mm 8 mps 733 mmHg 87%
    02:00 +1°C° 0.1 mm 8 mps 733 mmHg 87%
    03:00 +1°C° 0.2 mm 8 mps 733 mmHg 87%
    04:00 +1°C° 0.2 mm 8 mps 733 mmHg 88%
    05:00 0°C° 0.2 mm 8 mps 733 mmHg 88%
    06:00 0°C° 0.5 mm 8 mps 734 mmHg 88%
    07:00 0°C° 0.5 mm 7 mps 734 mmHg 88%
    08:00 0°C° 0.5 mm 7 mps 734 mmHg 89%
    09:00 0°C° 0.1 mm 7 mps 734 mmHg 88%
    10:00 0°C° 0.1 mm 7 mps 735 mmHg 88%
    11:00 0°C° 0.1 mm 7 mps 735 mmHg 87%
    12:00 +2°C° 0.3 mm 7 mps 734 mmHg 87%
    13:00 +1°C° 0.3 mm 8 mps 734 mmHg 87%
    14:00 +1°C° 0.3 mm 8 mps 734 mmHg 88%
    15:00 +1°C° 0.7 mm 8 mps 734 mmHg 88%
    16:00 +1°C° 0.7 mm 8 mps 733 mmHg 89%
    17:00 +1°C° 0.7 mm 8 mps 733 mmHg 89%
    18:00 +2°C° 0.1 mm 7 mps 733 mmHg 90%
    19:00 +2°C° 0.1 mm 7 mps 733 mmHg 91%
    20:00 +2°C° 0.1 mm 6 mps 733 mmHg 91%
    21:00 +3°C° 0.5 mm 6 mps 733 mmHg 92%
    22:00 +3°C° 0.5 mm 6 mps 733 mmHg 93%
    23:00 +3°C° 0.5 mm 6 mps 733 mmHg 94%

    26 Enero, Sábado

    Tiempo Temperatura Precipitaciones Viento Presión Humedad
    00:00 +3°C° 1.7 mm 6 mps 733 mmHg 94%
    01:00 +3°C° 1.7 mm 6 mps 732 mmHg 94%
    02:00 +3°C° 1.7 mm 5 mps 732 mmHg 95%
    03:00 +4°C° 1.8 mm 4 mps 732 mmHg 95%
    04:00 +4°C° 1.8 mm 4 mps 732 mmHg 95%
    05:00 +3°C° 1.8 mm 3 mps 732 mmHg 96%
    06:00 +3°C° 0.3 mm 3 mps 732 mmHg 95%
    07:00 +2°C° 0.3 mm 3 mps 732 mmHg 94%
    08:00 +1°C° 0.3 mm 3 mps 733 mmHg 93%
    09:00 +1°C° 0.2 mm 3 mps 733 mmHg 93%
    10:00 -1°C° 0.2 mm 4 mps 733 mmHg 92%
    11:00 -2°C° 0.2 mm 4 mps 734 mmHg 92%
    12:00 -1°C° 0.1 mm 3 mps 734 mmHg 91%
    13:00 -1°C° 0.1 mm 3 mps 734 mmHg 90%
    14:00 -1°C° 0.1 mm 3 mps 734 mmHg 89%
    15:00 -1°C° 0.1 mm 3 mps 734 mmHg 90%
    16:00 -1°C° 0.1 mm 3 mps 734 mmHg 91%
    17:00 -2°C° 0.1 mm 3 mps 734 mmHg 91%
    18:00 -2°C° 0.1 mm 3 mps 735 mmHg 92%
    19:00 -2°C° 0.1 mm 2 mps 735 mmHg 92%
    20:00 -2°C° 0.1 mm 2 mps 735 mmHg 92%
    21:00 -2°C° 0.1 mm 2 mps 735 mmHg 93%
    22:00 -2°C° 0.1 mm 2 mps 735 mmHg 93%
    23:00 -2°C° 0.1 mm 2 mps 735 mmHg 93%
    Mostrar más